Location: Palomar Mountain Lodge
(33.3110°N, 116.8495°W)
Time: 22:48:16
(UTC-08:00)

SPOT 5 - Pass Details

Date: 12 July 2018
Orbit: 622 x 816 km, 98.3° (Epoch: 09 December)

Event Time Altitude Azimuth Distance (km) Brightness Sun altitude
Exits shadow 22:54:03 49° 243° (WSW) 1,043 3.6 -28.0°
Maximum altitude 22:54:30 50° 260° (W) 1,026 3.7 -28.0°
Drops below altitude 10° 22:59:40 10° 336° (NNW) 2,395 6.5 -28.6°
Sets 23:02:05 0° 341° (NNW) 3,316 7.5 -28.8°
